| time (UTC) | temp F | wind direction | speed MPH | gust MPH | rain 1hr in | rain 24hr in | rain mn in | humidity % | barometer mb |
| 20260505090725 | 50 | 229 | 0.0 | 0.0 | 0.00 | 0.00 | 0.00 | 94 | 1013.5 |
| 20260505090223 | 50 | 226 | 0.0 | 0.0 | 0.00 | 0.00 | 0.00 | 94 | 1013.6 |
| 20260505085720 | 50 | 227 | 0.0 | 0.0 | 0.00 | 0.00 | 0.00 | 94 | 1013.1 |
| 20260505085218 | 50 | 225 | 0.0 | 0.0 | 0.00 | 0.00 | 0.00 | 93 | 1013.5 |
| 20260505084715 | 50 | 226 | 0.0 | 0.0 | 0.00 | 0.00 | 0.00 | 93 | 1013.5 |
| 20260505084214 | 50 | 225 | 0.0 | 0.0 | 0.00 | 0.00 | 0.00 | 93 | 1013.5 |
| 20260505083710 | 50 | 227 | 0.0 | 0.0 | 0.00 | 0.00 | 0.00 | 93 | 1013.4 |
| 20260505083207 | 50 | 224 | 0.0 | 0.0 | 0.00 | 0.00 | 0.00 | 92 | 1013.6 |
| 20260505082703 | 50 | 225 | 0.0 | 0.0 | 0.00 | 0.00 | 0.00 | 92 | 1013.5 |
| 20260505082201 | 51 | 224 | 0.0 | 0.0 | 0.00 | 0.00 | 0.00 | 92 | 1013.7 |
| 20260505081656 | 51 | 225 | 0.0 | 0.0 | 0.00 | 0.00 | 0.00 | 92 | 1013.5 |
| 20260505081154 | 51 | 225 | 0.0 | 0.0 | 0.00 | 0.00 | 0.00 | 91 | 1013.9 |
| 20260505080651 | 51 | 225 | 0.0 | 0.0 | 0.00 | 0.00 | 0.00 | 91 | 1013.6 |
| 20260505080146 | 51 | 225 | 0.0 | 0.0 | 0.00 | 0.00 | 0.00 | 91 | 1013.6 |
| 20260505075642 | 51 | 225 | 0.0 | 0.0 | 0.00 | 0.00 | 0.00 | 91 | 1013.6 |
| 20260505075139 | 51 | 225 | 0.0 | 0.0 | 0.00 | 0.00 | 0.00 | 90 | 1013.7 |
| 20260505074636 | 51 | 224 | 0.0 | 0.0 | 0.00 | 0.00 | 0.00 | 90 | 1013.9 |
| 20260505074133 | 51 | 225 | 0.0 | 0.0 | 0.00 | 0.00 | 0.00 | 90 | 1013.7 |
| 20260505073631 | 51 | 225 | 0.0 | 0.0 | 0.00 | 0.00 | 0.00 | 90 | 1013.8 |
| 20260505073129 | 51 | 224 | 0.0 | 0.0 | 0.00 | 0.00 | 0.00 | 90 | 1013.8 |
| 20260505072624 | 51 | 226 | 0.0 | 0.0 | 0.00 | 0.00 | 0.00 | 90 | 1013.8 |
| 20260505072121 | 52 | 225 | 0.0 | 0.0 | 0.00 | 0.00 | 0.00 | 90 | 1013.7 |
| 20260505071617 | 52 | 226 | 0.0 | 0.0 | 0.00 | 0.00 | 0.00 | 89 | 1013.8 |
| 20260505071115 | 52 | 226 | 0.0 | 0.0 | 0.00 | 0.00 | 0.00 | 89 | 1013.9 |
| 20260505070612 | 52 | 226 | 0.0 | 0.0 | 0.00 | 0.00 | 0.00 | 88 | 1013.9 |
| 20260505070108 | 52 | 225 | 0.0 | 0.0 | 0.00 | 0.00 | 0.00 | 88 | 1013.9 |
| 20260505065604 | 53 | 226 | 0.0 | 0.0 | 0.00 | 0.00 | 0.00 | 87 | 1013.8 |
| 20260505065101 | 53 | 225 | 0.0 | 0.0 | 0.00 | 0.00 | 0.00 | 86 | 1013.9 |
| 20260505064557 | 53 | 226 | 0.0 | 0.0 | 0.00 | 0.00 | 0.00 | 86 | 1014.0 |
| 20260505064056 | 53 | 226 | 0.0 | 0.0 | 0.00 | 0.00 | 0.00 | 85 | 1013.8 |
| 20260505063553 | 54 | 226 | 0.0 | 0.0 | 0.00 | 0.00 | 0.00 | 84 | 1014.0 |
| 20260505063049 | 54 | 225 | 0.0 | 0.0 | 0.00 | 0.00 | 0.00 | 83 | 1014.0 |
| 20260505062545 | 54 | 226 | 0.0 | 0.0 | 0.00 | 0.00 | 0.00 | 83 | 1014.1 |
| 20260505062043 | 55 | 226 | 0.0 | 0.0 | 0.00 | 0.00 | 0.00 | 82 | 1014.1 |
| 20260505061540 | 55 | 227 | 0.0 | 0.0 | 0.00 | 0.00 | 0.00 | 82 | 1013.9 |
| 20260505061038 | 55 | 224 | 0.0 | 0.0 | 0.00 | 0.00 | 0.00 | 80 | 1013.8 |
| 20260505060535 | 56 | 217 | 0.0 | 0.0 | 0.00 | 0.00 | 0.00 | 79 | 1014.1 |
| 20260505060032 | 56 | 220 | 0.0 | 0.0 | 0.00 | 0.00 | 0.00 | 79 | 1014.1 |
| 20260505055527 | 56 | 222 | 0.0 | 1.0 | 0.00 | 0.00 | 0.00 | 79 | 1013.9 |
| 20260505055024 | 56 | 223 | 0.0 | 1.0 | 0.00 | 0.00 | 0.00 | 78 | 1014.1 |
| 20260505054521 | 57 | 217 | 0.0 | 1.0 | 0.00 | 0.00 | 0.00 | 78 | 1013.8 |
| 20260505054020 | 57 | 216 | 1.0 | 1.0 | 0.00 | 0.00 | 0.00 | 78 | 1013.9 |
| 20260505053516 | 57 | 219 | 0.0 | 1.0 | 0.00 | 0.00 | 0.00 | 77 | 1013.9 |
| 20260505053013 | 57 | 219 | 0.0 | 1.0 | 0.00 | 0.00 | 0.00 | 77 | 1014.0 |
| 20260505052510 | 57 | 221 | 0.0 | 0.0 | 0.00 | 0.00 | 0.00 | 77 | 1013.9 |
| 20260505052008 | 57 | 222 | 0.0 | 0.0 | 0.00 | 0.00 | 0.00 | 77 | 1014.0 |
| 20260505051504 | 57 | 221 | 0.0 | 1.0 | 0.00 | 0.00 | 0.00 | 77 | 1013.7 |
| 20260505051003 | 57 | 212 | 1.0 | 2.0 | 0.00 | 0.00 | 0.00 | 77 | 1013.7 |
| 20260505050500 | 57 | 219 | 0.0 | 1.0 | 0.00 | 0.00 | 0.00 | 77 | 1013.9 |
| 20260505041428 | 59 | 220 | 0.0 | 0.0 | 0.00 | 0.00 | 0.00 | 75 | 1014.2 |
| 20260505040925 | 59 | 220 | 0.0 | 0.0 | 0.00 | 0.00 | 0.00 | 76 | 1013.7 |
| 20260505040422 | 58 | 221 | 0.0 | 0.0 | 0.00 | 0.00 | 0.00 | 75 | 1014.0 |
| 20260505035919 | 59 | 221 | 0.0 | 1.0 | 0.00 | 0.00 | 0.00 | 76 | 1013.8 |
| 20260505035415 | 59 | 215 | 0.0 | 1.0 | 0.00 | 0.00 | 0.00 | 76 | 1013.8 |
| 20260505034912 | 58 | 219 | 0.0 | 0.0 | 0.00 | 0.00 | 0.00 | 78 | 1013.8 |
| 20260505034409 | 58 | 219 | 0.0 | 0.0 | 0.00 | 0.00 | 0.00 | 79 | 1013.8 |
| 20260505033906 | 58 | 220 | 0.0 | 0.0 | 0.00 | 0.00 | 0.00 | 79 | 1013.9 |
| 20260505033403 | 57 | 220 | 0.0 | 0.0 | 0.00 | 0.00 | 0.00 | 79 | 1013.9 |
| 20260505032901 | 58 | 220 | 0.0 | 0.0 | 0.00 | 0.00 | 0.00 | 79 | 1013.8 |
| 20260505032357 | 57 | 220 | 0.0 | 0.0 | 0.00 | 0.00 | 0.00 | 80 | 1013.8 |
| 20260505031854 | 57 | 220 | 0.0 | 0.0 | 0.00 | 0.00 | 0.00 | 81 | 1013.8 |
| 20260505031351 | 57 | 220 | 0.0 | 0.0 | 0.00 | 0.00 | 0.00 | 81 | 1013.7 |
| 20260505030848 | 58 | 220 | 0.0 | 0.0 | 0.00 | 0.00 | 0.00 | 81 | 1013.6 |
| 20260505030344 | 58 | 220 | 0.0 | 0.0 | 0.00 | 0.00 | 0.00 | 81 | 1013.7 |
| 20260505025839 | 58 | 220 | 0.0 | 0.0 | 0.00 | 0.00 | 0.00 | 81 | 1013.7 |
| 20260505025337 | 58 | 220 | 0.0 | 0.0 | 0.00 | 0.00 | 0.00 | 81 | 1013.9 |
| 20260505024836 | 58 | 215 | 1.0 | 1.0 | 0.00 | 0.00 | 0.00 | 81 | 1013.9 |
| 20260505024333 | 59 | 220 | 0.0 | 0.0 | 0.00 | 0.00 | 0.00 | 80 | 1013.7 |
| 20260505023830 | 59 | 220 | 0.0 | 0.0 | 0.00 | 0.00 | 0.00 | 78 | 1013.9 |
| 20260505023327 | 59 | 220 | 0.0 | 0.0 | 0.00 | 0.00 | 0.00 | 77 | 1013.6 |
| 20260505022824 | 59 | 220 | 0.0 | 0.0 | 0.00 | 0.00 | 0.00 | 78 | 1013.9 |
| 20260505022321 | 59 | 220 | 0.0 | 0.0 | 0.00 | 0.00 | 0.00 | 77 | 1013.8 |
| 20260505021819 | 59 | 217 | 1.0 | 1.0 | 0.00 | 0.00 | 0.00 | 78 | 1013.8 |
| 20260505021315 | 60 | 220 | 0.0 | 0.0 | 0.00 | 0.00 | 0.00 | 78 | 1013.8 |
| 20260505020811 | 60 | 220 | 0.0 | 0.0 | 0.00 | 0.00 | 0.00 | 77 | 1013.7 |
| 20260505020307 | 60 | 220 | 0.0 | 0.0 | 0.00 | 0.00 | 0.00 | 77 | 1013.6 |
| 20260505015804 | 60 | 220 | 0.0 | 0.0 | 0.00 | 0.00 | 0.00 | 77 | 1013.6 |
| 20260505015301 | 60 | 222 | 0.0 | 0.0 | 0.00 | 0.00 | 0.00 | 76 | 1013.6 |
| 20260505014758 | 61 | 222 | 0.0 | 0.0 | 0.00 | 0.00 | 0.00 | 75 | 1013.5 |
| 20260505014255 | 61 | 222 | 0.0 | 0.0 | 0.00 | 0.00 | 0.00 | 75 | 1013.6 |
| 20260505013751 | 61 | 222 | 0.0 | 0.0 | 0.00 | 0.00 | 0.00 | 75 | 1013.7 |
| 20260505013249 | 62 | 223 | 0.0 | 0.0 | 0.00 | 0.00 | 0.00 | 74 | 1013.3 |
| 20260505012747 | 62 | 222 | 0.0 | 0.0 | 0.00 | 0.00 | 0.00 | 73 | 1013.5 |
| 20260505012244 | 63 | 223 | 0.0 | 0.0 | 0.00 | 0.00 | 0.00 | 72 | 1013.5 |
| 20260505011739 | 63 | 222 | 0.0 | 0.0 | 0.00 | 0.00 | 0.00 | 71 | 1013.3 |
| 20260505011237 | 64 | 223 | 0.0 | 0.0 | 0.00 | 0.00 | 0.00 | 70 | 1013.2 |
| 20260505010732 | 64 | 223 | 0.0 | 0.0 | 0.00 | 0.00 | 0.00 | 69 | 1013.2 |
| 20260505010229 | 65 | 223 | 0.0 | 0.0 | 0.00 | 0.00 | 0.00 | 68 | 1013.1 |
| 20260505005725 | 65 | 223 | 0.0 | 0.0 | 0.00 | 0.00 | 0.00 | 66 | 1013.1 |
| 20260505005222 | 66 | 223 | 0.0 | 0.0 | 0.00 | 0.00 | 0.00 | 66 | 1013.2 |
| 20260505004720 | 66 | 223 | 0.0 | 0.0 | 0.00 | 0.00 | 0.00 | 64 | 1013.1 |
| 20260505004216 | 67 | 223 | 0.0 | 0.0 | 0.00 | 0.00 | 0.00 | 63 | 1013.1 |
| 20260505003713 | 68 | 223 | 0.0 | 0.0 | 0.00 | 0.00 | 0.00 | 61 | 1013.1 |
| 20260505003211 | 69 | 222 | 0.0 | 0.0 | 0.00 | 0.00 | 0.00 | 60 | 1013.1 |
| 20260505002707 | 70 | 223 | 0.0 | 0.0 | 0.00 | 0.00 | 0.00 | 58 | 1012.8 |
| 20260505002205 | 70 | 223 | 0.0 | 0.0 | 0.00 | 0.00 | 0.00 | 55 | 1012.8 |
| 20260505001702 | 71 | 222 | 0.0 | 0.0 | 0.00 | 0.00 | 0.00 | 54 | 1012.7 |
| 20260505001159 | 71 | 222 | 0.0 | 1.0 | 0.00 | 0.00 | 0.00 | 53 | 1012.7 |
| 20260505000656 | 72 | 213 | 0.0 | 0.0 | 0.00 | 0.00 | 0.00 | 54 | 1012.8 |
| 20260505000154 | 72 | 223 | 0.0 | 1.0 | 0.00 | 0.00 | 0.00 | 52 | 1012.8 |
| 20260504235650 | 73 | 221 | 1.0 | 1.0 | 0.00 | 0.00 | 0.00 | 51 | 1012.8 |
| 20260504235146 | 73 | 221 | 0.0 | 0.0 | 0.00 | 0.00 | 0.00 | 49 | 1012.8 |
| 20260504234644 | 74 | 217 | 0.0 | 1.0 | 0.00 | 0.00 | 0.00 | 48 | 1012.5 |
| 20260504234141 | 74 | 195 | 1.0 | 5.0 | 0.00 | 0.00 | 0.00 | 46 | 1012.5 |
| 20260504233637 | 75 | 221 | 1.0 | 2.0 | 0.00 | 0.00 | 0.00 | 46 | 1012.7 |
| 20260504233133 | 75 | 221 | 0.0 | 2.0 | 0.00 | 0.00 | 0.00 | 47 | 1012.7 |
| 20260504232631 | 75 | 188 | 4.0 | 5.0 | 0.00 | 0.00 | 0.00 | 46 | 1012.8 |
| 20260504232128 | 75 | 198 | 1.0 | 2.0 | 0.00 | 0.00 | 0.00 | 46 | 1012.7 |
| 20260504231624 | 75 | 223 | 0.0 | 2.0 | 0.00 | 0.00 | 0.00 | 47 | 1012.8 |
| 20260504231120 | 76 | 216 | 0.0 | 3.0 | 0.00 | 0.00 | 0.00 | 46 | 1012.5 |
| 20260504230617 | 76 | 223 | 0.0 | 5.0 | 0.00 | 0.00 | 0.00 | 45 | 1012.4 |
| 20260504230116 | 76 | 222 | 0.0 | 3.0 | 0.00 | 0.00 | 0.00 | 44 | 1012.4 |
| 20260504225613 | 76 | 226 | 0.0 | 2.0 | 0.00 | 0.00 | 0.00 | 43 | 1012.7 |
| 20260504225110 | 76 | 224 | 1.0 | 3.0 | 0.00 | 0.00 | 0.00 | 41 | 1012.8 |
| 20260504224606 | 76 | 217 | 1.0 | 6.0 | 0.00 | 0.00 | 0.00 | 41 | 1012.9 |
| 20260504224103 | 76 | 210 | 3.0 | 7.0 | 0.00 | 0.00 | 0.00 | 40 | 1012.7 |
| 20260504223600 | 76 | 163 | 4.0 | 7.0 | 0.00 | 0.00 | 0.00 | 39 | 1012.7 |
| 20260504223056 | 77 | 209 | 2.0 | 7.0 | 0.00 | 0.00 | 0.00 | 42 | 1012.7 |
| 20260504222553 | 77 | 201 | 0.0 | 2.0 | 0.00 | 0.00 | 0.00 | 45 | 1012.8 |
| 20260504222050 | 77 | 167 | 2.0 | 3.0 | 0.00 | 0.00 | 0.00 | 43 | 1012.5 |
| 20260504221548 | 77 | 118 | 3.0 | 8.0 | 0.00 | 0.00 | 0.00 | 42 | 1012.7 |
| 20260504221044 | 77 | 213 | 0.0 | 2.0 | 0.00 | 0.00 | 0.00 | 42 | 1012.5 |
| 20260504220541 | 77 | 166 | 2.0 | 7.0 | 0.00 | 0.00 | 0.00 | 42 | 1012.3 |
| 20260504220038 | 77 | 224 | 1.0 | 6.0 | 0.00 | 0.00 | 0.00 | 42 | 1012.4 |
| 20260504215534 | 78 | 138 | 1.0 | 6.0 | 0.00 | 0.00 | 0.00 | 41 | 1012.7 |
| 20260504215032 | 78 | 204 | 2.0 | 6.0 | 0.00 | 0.00 | 0.00 | 42 | 1012.4 |
| 20260504214527 | 78 | 213 | 1.0 | 3.0 | 0.00 | 0.00 | 0.00 | 44 | 1012.5 |
| 20260504214024 | 78 | 202 | 0.0 | 6.0 | 0.00 | 0.00 | 0.00 | 41 | 1012.5 |
| 20260504213521 | 78 | 148 | 6.0 | 7.0 | 0.00 | 0.00 | 0.00 | 39 | 1012.3 |
| 20260504213018 | 78 | 213 | 0.0 | 3.0 | 0.00 | 0.00 | 0.00 | 43 | 1012.5 |
| 20260504212513 | 78 | 217 | 2.0 | 5.0 | 0.00 | 0.00 | 0.00 | 45 | 1012.3 |
| 20260504212011 | 78 | 210 | 0.0 | 3.0 | 0.00 | 0.00 | 0.00 | 46 | 1012.5 |
| 20260504211508 | 78 | 201 | 2.0 | 5.0 | 0.00 | 0.00 | 0.00 | 45 | 1012.7 |
| 20260504211005 | 77 | 233 | 0.0 | 5.0 | 0.00 | 0.00 | 0.00 | 45 | 1012.8 |
| 20260504210502 | 77 | 221 | 2.0 | 5.0 | 0.00 | 0.00 | 0.00 | 46 | 1012.5 |
| 20260504205958 | 77 | 217 | 1.0 | 2.0 | 0.00 | 0.00 | 0.00 | 46 | 1012.8 |
| 20260504205456 | 78 | 222 | 1.0 | 6.0 | 0.00 | 0.00 | 0.00 | 45 | 1012.5 |
| 20260504204954 | 77 | 220 | 0.0 | 2.0 | 0.00 | 0.00 | 0.00 | 46 | 1012.9 |
| 20260504204452 | 78 | 226 | 1.0 | 1.0 | 0.00 | 0.00 | 0.00 | 45 | 1012.9 |
| 20260504203951 | 78 | 173 | 3.0 | 5.0 | 0.00 | 0.00 | 0.00 | 45 | 1013.0 |
| 20260504203449 | 78 | 223 | 1.0 | 2.0 | 0.00 | 0.00 | 0.00 | 44 | 1013.0 |
| 20260504202944 | 78 | 224 | 0.0 | 2.0 | 0.00 | 0.00 | 0.00 | 46 | 1013.2 |
| 20260504202441 | 78 | 221 | 2.0 | 2.0 | 0.00 | 0.00 | 0.00 | 44 | 1013.1 |
| 20260504201938 | 78 | 224 | 0.0 | 1.0 | 0.00 | 0.00 | 0.00 | 47 | 1013.1 |
| 20260504201435 | 78 | 182 | 2.0 | 3.0 | 0.00 | 0.00 | 0.00 | 44 | 1013.0 |
| 20260504200933 | 77 | 217 | 4.0 | 5.0 | 0.00 | 0.00 | 0.00 | 44 | 1013.3 |
| 20260504200429 | 78 | 213 | 2.0 | 3.0 | 0.00 | 0.00 | 0.00 | 45 | 1013.4 |
| 20260504195926 | 78 | 229 | 1.0 | 6.0 | 0.00 | 0.00 | 0.00 | 43 | 1013.5 |
| 20260504195422 | 78 | 216 | 1.0 | 3.0 | 0.00 | 0.00 | 0.00 | 45 | 1013.5 |
| 20260504194919 | 78 | 215 | 1.0 | 7.0 | 0.00 | 0.00 | 0.00 | 45 | 1013.4 |
| 20260504194414 | 78 | 216 | 0.0 | 2.0 | 0.00 | 0.00 | 0.00 | 45 | 1013.5 |
| 20260504193911 | 77 | 189 | 1.0 | 2.0 | 0.00 | 0.00 | 0.00 | 46 | 1013.6 |
| 20260504193408 | 77 | 224 | 0.0 | 3.0 | 0.00 | 0.00 | 0.00 | 46 | 1013.7 |
| 20260504192907 | 77 | 234 | 0.0 | 3.0 | 0.00 | 0.00 | 0.00 | 45 | 1013.9 |
| 20260504192404 | 78 | 222 | 1.0 | 5.0 | 0.00 | 0.00 | 0.00 | 48 | 1013.9 |
| 20260504191902 | 77 | 214 | 3.0 | 6.0 | 0.00 | 0.00 | 0.00 | 46 | 1013.8 |
| 20260504191400 | 77 | 186 | 4.0 | 7.0 | 0.00 | 0.00 | 0.00 | 45 | 1014.2 |
| 20260504190855 | 78 | 131 | 1.0 | 3.0 | 0.00 | 0.00 | 0.00 | 46 | 1014.3 |
| 20260504190351 | 78 | 195 | 4.0 | 6.0 | 0.00 | 0.00 | 0.00 | 47 | 1014.4 |
| 20260504185848 | 77 | 227 | 0.0 | 2.0 | 0.00 | 0.00 | 0.00 | 50 | 1014.3 |
| 20260504185345 | 77 | 251 | 1.0 | 2.0 | 0.00 | 0.00 | 0.00 | 48 | 1014.5 |
| 20260504184841 | 76 | 227 | 0.0 | 5.0 | 0.00 | 0.00 | 0.00 | 48 | 1014.7 |
| 20260504184337 | 77 | 195 | 3.0 | 3.0 | 0.00 | 0.00 | 0.00 | 46 | 1014.8 |
| 20260504183833 | 77 | 199 | 1.0 | 2.0 | 0.00 | 0.00 | 0.00 | 48 | 1014.8 |
| 20260504183331 | 77 | 233 | 0.0 | 0.0 | 0.00 | 0.00 | 0.00 | 47 | 1014.6 |
| 20260504182828 | 76 | 271 | 2.0 | 3.0 | 0.00 | 0.00 | 0.00 | 49 | 1014.6 |
| 20260504182325 | 77 | 220 | 1.0 | 2.0 | 0.00 | 0.00 | 0.00 | 47 | 1014.6 |
| 20260504181822 | 76 | 231 | 0.0 | 1.0 | 0.00 | 0.00 | 0.00 | 50 | 1014.8 |
| 20260504181320 | 76 | 226 | 0.0 | 1.0 | 0.00 | 0.00 | 0.00 | 48 | 1014.7 |
| 20260504180819 | 76 | 241 | 1.0 | 1.0 | 0.00 | 0.00 | 0.00 | 48 | 1014.7 |
| 20260504180316 | 76 | 219 | 1.0 | 8.0 | 0.00 | 0.00 | 0.00 | 49 | 1015.1 |
| 20260504175814 | 76 | 235 | 0.0 | 1.0 | 0.00 | 0.00 | 0.00 | 49 | 1015.0 |
| 20260504175311 | 76 | 234 | 0.0 | 2.0 | 0.00 | 0.00 | 0.00 | 48 | 1015.2 |
| 20260504174809 | 76 | 229 | 0.0 | 2.0 | 0.00 | 0.00 | 0.00 | 46 | 1015.3 |
| 20260504174306 | 77 | 238 | 1.0 | 2.0 | 0.00 | 0.00 | 0.00 | 46 | 1015.3 |
| 20260504173803 | 77 | 222 | 2.0 | 3.0 | 0.00 | 0.00 | 0.00 | 45 | 1015.3 |
| 20260504173259 | 77 | 224 | 0.0 | 1.0 | 0.00 | 0.00 | 0.00 | 46 | 1015.3 |
| 20260504172756 | 77 | 228 | 0.0 | 3.0 | 0.00 | 0.00 | 0.00 | 45 | 1015.3 |
| 20260504172253 | 76 | 231 | 0.0 | 1.0 | 0.00 | 0.00 | 0.00 | 48 | 1015.4 |
| 20260504171749 | 76 | 239 | 0.0 | 2.0 | 0.00 | 0.00 | 0.00 | 49 | 1015.6 |
| 20260504171246 | 76 | 227 | 0.0 | 1.0 | 0.00 | 0.00 | 0.00 | 46 | 1015.6 |
| 20260504170743 | 75 | 240 | 1.0 | 2.0 | 0.00 | 0.00 | 0.00 | 49 | 1015.8 |
| 20260504170241 | 75 | 229 | 0.0 | 1.0 | 0.00 | 0.00 | 0.00 | 49 | 1015.8 |
| 20260504160159 | 71 | 202 | 3.0 | 5.0 | 0.00 | 0.00 | 0.00 | 52 | 1016.6 |
| 20260504151127 | 67 | 220 | 0.0 | 2.0 | 0.00 | 0.00 | 0.00 | 56 | 1017.3 |
| 20260504150624 | 67 | 190 | 2.0 | 5.0 | 0.00 | 0.00 | 0.00 | 55 | 1017.4 |
| 20260504150121 | 67 | 151 | 1.0 | 2.0 | 0.00 | 0.00 | 0.00 | 55 | 1017.5 |
| 20260504141049 | 62 | 224 | 1.0 | 2.0 | 0.00 | 0.00 | 0.00 | 61 | 1018.0 |
| 20260504140546 | 62 | 208 | 2.0 | 2.0 | 0.00 | 0.00 | 0.00 | 60 | 1018.1 |
| 20260504130510 | 51 | 225 | 0.0 | 0.0 | 0.00 | 0.00 | 0.00 | 88 | 1018.2 |
| 20260504110358 | 43 | 227 | 0.0 | 0.0 | 0.00 | 0.00 | 0.00 | 99 | 1017.7 |
| 20260504100315 | 43 | 227 | 0.0 | 0.0 | 0.00 | 0.00 | 0.00 | 98 | 1017.5 |